Stations météo

réclame
Mon MeteoGroup
Orense, Espagne (8048): Température de l'air & dewpoint: 14.01.2019 12:00:00 - 20.01.2019 12:00:00 (CET)Orense, Espagne (8048): Vitesse du vent: 14.01.2019 12:00:00 - 20.01.2019 12:00:00 (CET)Orense, Espagne (8048): Direction du vent: 14.01.2019 12:00:00 - 20.01.2019 12:00:00 (CET)Orense, Espagne (8048): reduced air pressure: 14.01.2019 12:00:00 - 20.01.2019 12:00:00 (CET)Orense, Espagne (8048): visibility: 14.01.2019 12:00:00 - 20.01.2019 12:00:00 (CET)Orense, Espagne (8048): Quantités de précipitations: 14.01.2019 12:00:00 - 20.01.2019 12:00:00 (CET)
Date & Time tt [°C] td [°C] ff [km/h] ff [knt] dd ppp [hPa] vv [km] rr [mm]
20.01.2019 12:00:00 - - - - - - - -
20.01.2019 11:00:00 6,0 5,7 2 1 S 1020,0 20 0,0
20.01.2019 10:00:00 4,1 3,8 2 1 SW 1019,3 14 -
20.01.2019 09:00:00 3,9 3,5 4 2 E 1018,7 20 0,0
20.01.2019 08:00:00 4,2 3,5 2 1 SSW 1018,2 12 0,0
20.01.2019 07:00:00 5,0 4,3 2 1 W 1017,3 15 -
20.01.2019 06:00:00 5,5 4,6 2 1 NE 1016,8 18 0,0
20.01.2019 05:00:00 6,4 5,0 2 1 E 1016,5 20 0,0
20.01.2019 04:00:00 7,3 5,9 2 1 S 1016,0 20 -
20.01.2019 03:00:00 8,6 6,6 4 2 NE 1014,8 20 0,0
20.01.2019 02:00:00 8,8 6,6 2 1 NE 1014,2 20 0,0
20.01.2019 01:00:00 9,3 6,6 4 2 WSW 1013,7 20 -
20.01.2019 00:00:00 10,1 8,0 4 2 NW 1012,6 13 0,0
19.01.2019 23:00:00 10,6 8,0 4 2 W 1010,8 20 0,0
19.01.2019 22:00:00 10,4 9,9 4 2 N 1009,1 19 -
19.01.2019 21:00:00 10,3 10,0 4 2 NNE 1007,6 4,3 1,0
19.01.2019 20:00:00 10,1 9,6 2 1 S 1006,7 2,6 3,0
19.01.2019 19:00:00 10,0 9,4 2 1 NW 1006,4 8 -
19.01.2019 18:00:00 10,2 9,6 4 2 WNW 1005,6 7 0,8
19.01.2019 17:00:00 10,0 9,2 5 3 SSW 1005,7 16 3,0
19.01.2019 16:00:00 9,5 9,0 9 5 SE 1006,0 0,9 -
19.01.2019 15:00:00 8,8 8,3 4 2 W 1007,7 1,5 5,0
19.01.2019 14:00:00 8,5 8,1 2 1 SW 1008,9 9 0,2
19.01.2019 13:00:00 8,1 7,5 2 1 E 1010,6 7 -
19.01.2019 12:00:00 7,6 7,2 2 1 WSW 1011,8 8 0,4
19.01.2019 11:00:00 7,4 6,7 2 1 SSW 1012,4 13 0,2
19.01.2019 10:00:00 6,6 6,3 2 1 W 1012,7 16 -
19.01.2019 09:00:00 5,7 5,4 2 1 SSW 1013,4 3,9 1,0
19.01.2019 08:00:00 5,7 5,4 2 1 SSE 1014,4 2,0 2,0
19.01.2019 07:00:00 5,6 5,3 2 1 S 1015,1 1,4 -
19.01.2019 06:00:00 5,6 5,3 2 1 SSW 1015,7 2,7 0,2
19.01.2019 05:00:00 5,6 5,2 0 0 N 1016,6 3,3 0,2
19.01.2019 04:00:00 5,6 5,2 2 1 W 1017,2 2,1 -
19.01.2019 03:00:00 5,8 5,4 2 1 WSW 1017,6 2,0 0,0
19.01.2019 02:00:00 6,0 5,6 4 2 WSW 1018,3 2,1 0,0
19.01.2019 01:00:00 6,3 5,9 2 1 E 1019,0 2,8 -
19.01.2019 00:00:00 6,4 5,8 2 1 SW 1019,1 4,0 0,0
18.01.2019 23:00:00 6,4 5,8 4 2 W 1019,1 - 0,0
18.01.2019 22:00:00 6,4 5,8 2 1 SW 1019,1 - -
18.01.2019 21:00:00 6,4 5,8 4 2 SE 1018,9 4,0 0,0
18.01.2019 20:00:00 6,5 5,8 2 1 S 1019,0 3,2 0,0
18.01.2019 19:00:00 6,6 5,7 2 1 SSE 1018,8 4,4 -
18.01.2019 18:00:00 7,1 5,7 2 1 S 1018,7 10 0,0
18.01.2019 17:00:00 7,1 5,6 4 2 NNE 1018,7 10 0,0
18.01.2019 16:00:00 6,7 5,3 2 1 WSW 1019,1 12 -
18.01.2019 15:00:00 5,8 4,9 2 1 SW 1019,9 8 0,2
18.01.2019 14:00:00 5,2 4,3 2 1 SSW 1020,7 7 0,6
18.01.2019 13:00:00 4,5 3,6 2 1 SW 1021,5 4,9 -
18.01.2019 12:00:00 3,9 3,3 4 2 W 1022,4 8 0,4
18.01.2019 11:00:00 2,8 2,2 2 1 SSE 1022,6 - 0,8
18.01.2019 10:00:00 2,3 1,7 2 1 SSW 1022,6 4,6 -
18.01.2019 09:00:00 1,9 1,0 2 1 SSE 1022,5 4,5 0,6
18.01.2019 08:00:00 1,5 0,5 0 0 N 1022,3 19 0,0
18.01.2019 07:00:00 1,2 0,2 2 1 SSW 1022,2 20 -
18.01.2019 06:00:00 0,8 -0,1 2 1 SSE 1022,5 20 0,0
18.01.2019 05:00:00 0,8 -0,2 2 1 SSE 1023,1 17 0,0
18.01.2019 04:00:00 1,0 0,0 2 1 ESE 1023,4 18 -
18.01.2019 03:00:00 1,2 0,0 2 1 SSE 1023,8 19 0,0
18.01.2019 02:00:00 1,4 0,1 2 1 WSW 1023,9 19 0,0
18.01.2019 01:00:00 1,7 0,2 2 1 W 1024,2 16 -
18.01.2019 00:00:00 2,2 0,4 2 1 SSW 1024,7 15 0,0
17.01.2019 23:00:00 3,2 1,1 5 3 WSW 1024,1 16 0,0
17.01.2019 22:00:00 4,5 1,9 2 1 WSW 1023,6 16 -
17.01.2019 21:00:00 6,2 2,6 2 1 E 1023,4 12 0,0
17.01.2019 20:00:00 8,1 3,0 2 1 S 1023,0 19 0,0
17.01.2019 19:00:00 10,5 3,1 5 3 ENE 1022,4 20 -
17.01.2019 18:00:00 12,1 2,3 4 2 NE 1021,9 20 0,0
17.01.2019 17:00:00 12,4 2,3 4 2 N 1021,3 20 0,0
17.01.2019 16:00:00 13,0 2,5 4 2 W 1021,3 20 -
17.01.2019 15:00:00 12,0 3,5 8 4 N 1021,3 20 0,0
17.01.2019 14:00:00 10,9 5,4 5 3 WNW 1022,2 12 0,0
17.01.2019 13:00:00 7,9 5,7 2 1 SE 1023,4 8 -
17.01.2019 12:00:00 5,2 4,9 4 2 S 1024,1 3,6 0,0
17.01.2019 11:00:00 4,9 4,6 4 2 SW 1023,8 1,9 0,0
17.01.2019 10:00:00 4,8 4,5 4 2 S 1023,5 0,5 -
17.01.2019 09:00:00 5,1 4,8 5 3 SE 1023,0 0,8 0,0
17.01.2019 08:00:00 5,6 5,2 2 1 E 1022,5 2,2 0,0
17.01.2019 07:00:00 6,0 5,6 2 1 E 1022,1 1,1 -
17.01.2019 06:00:00 5,9 5,5 2 1 WSW 1021,5 1,2 0,0
17.01.2019 05:00:00 6,3 5,9 2 1 E 1021,2 1,9 0,0
17.01.2019 04:00:00 6,4 5,8 0 0 N 1021,1 1,3 -
17.01.2019 03:00:00 6,8 6,2 4 2 W 1020,7 1,4 0,0
17.01.2019 02:00:00 6,8 6,2 2 1 SE 1020,6 2,1 0,0
17.01.2019 01:00:00 6,8 6,2 2 1 WSW 1020,4 2,1 -
17.01.2019 00:00:00 6,9 6,3 2 1 SE 1020,1 2,5 0,0
16.01.2019 23:00:00 7,0 6,3 0 0 N 1019,9 1,6 0,0
16.01.2019 22:00:00 7,0 6,1 4 2 W 1019,8 2,8 -
16.01.2019 21:00:00 6,9 5,7 4 2 W 1019,2 3,7 0,0
16.01.2019 20:00:00 7,1 5,7 2 1 SE 1019,0 3,0 0,0
16.01.2019 19:00:00 8,3 6,4 2 1 ENE 1018,3 3,5 -
16.01.2019 18:00:00 9,1 6,7 2 1 SSE 1018,0 6 0,0
16.01.2019 17:00:00 9,0 6,3 2 1 S 1017,7 9 0,0
16.01.2019 16:00:00 8,7 6,1 4 2 S 1017,7 8 -
16.01.2019 15:00:00 8,2 5,5 2 1 SSE 1017,7 6 0,0
16.01.2019 14:00:00 7,6 4,7 2 1 SSW 1018,1 11 0,0
16.01.2019 13:00:00 6,9 4,6 4 2 WSW 1018,9 12 -
16.01.2019 12:00:00 5,4 4,0 4 2 SW 1019,7 10 0,0
16.01.2019 11:00:00 4,4 3,2 2 1 S 1019,6 8 0,0
16.01.2019 10:00:00 4,0 2,8 2 1 SSE 1019,2 7 -
16.01.2019 09:00:00 3,6 2,7 2 1 SW 1019,0 8 0,0
16.01.2019 08:00:00 3,5 2,5 2 1 SSE 1018,8 9 0,0
16.01.2019 07:00:00 3,3 2,4 2 1 S 1018,9 9 -
16.01.2019 06:00:00 2,8 1,9 0 0 N 1019,0 7 0,0
16.01.2019 05:00:00 2,4 1,7 2 1 SSW 1019,5 7 0,0
16.01.2019 04:00:00 2,0 1,3 2 1 SW 1019,9 8 -
16.01.2019 03:00:00 1,5 0,9 2 1 SW 1020,2 6 0,0
16.01.2019 02:00:00 1,0 0,3 2 1 WSW 1020,3 7 0,0
16.01.2019 01:00:00 1,4 0,4 0 0 N 1020,4 4,4 -
16.01.2019 00:00:00 2,1 1,1 0 0 N 1020,6 2,9 0,0
15.01.2019 23:00:00 2,7 1,4 2 1 WNW 1020,5 6 0,0
15.01.2019 22:00:00 3,3 1,7 2 1 WSW 1020,3 - -
15.01.2019 21:00:00 4,3 2,3 0 0 N 1020,1 - 0,0
15.01.2019 20:00:00 5,9 3,1 0 0 N 1019,5 - 0,0
15.01.2019 19:00:00 8,2 4,0 0 0 N 1018,8 7 -
15.01.2019 18:00:00 11,2 4,6 2 1 S 1018,2 11 0,0
15.01.2019 17:00:00 11,9 4,4 2 1 WNW 1018,4 14 0,0
15.01.2019 16:00:00 11,6 4,3 4 2 SSW 1018,7 14 -
15.01.2019 15:00:00 9,2 4,2 4 2 S 1019,5 12 0,0
15.01.2019 14:00:00 6,1 3,1 4 2 ENE 1021,0 6 0,0
15.01.2019 13:00:00 3,6 2,3 4 2 S 1022,5 7 -
15.01.2019 12:00:00 2,5 1,8 4 2 S 1023,6 - 0,0
15.01.2019 11:00:00 2,1 1,5 4 2 SSE 1023,8 - 0,0
15.01.2019 10:00:00 1,6 1,0 5 3 SSE 1023,6 3,3 -
15.01.2019 09:00:00 1,5 0,8 4 2 S 1023,2 - 0,0
15.01.2019 08:00:00 1,6 1,0 4 2 SSE 1023,1 8 0,0
15.01.2019 07:00:00 1,5 0,9 4 2 SSE 1023,0 6 -
15.01.2019 06:00:00 1,4 0,7 5 3 SE 1023,0 8 0,0
15.01.2019 05:00:00 1,5 1,1 4 2 ESE 1023,5 1,8 0,0
15.01.2019 04:00:00 1,2 0,5 2 1 SSW 1023,9 2,9 -
15.01.2019 03:00:00 0,6 -0,3 2 1 SSW 1024,0 9 0,0
15.01.2019 02:00:00 0,1 -0,8 2 1 SW 1024,1 8 0,0
15.01.2019 01:00:00 -0,3 -1,1 2 1 SE 1024,5 3,4 -
15.01.2019 00:00:00 0,4 -0,7 2 1 WSW 1024,9 3,2 0,0
14.01.2019 23:00:00 1,1 -0,2 2 1 SW 1024,7 4,5 0,0
14.01.2019 22:00:00 2,2 0,6 2 1 S 1024,6 - -
14.01.2019 21:00:00 3,3 1,2 2 1 W 1024,5 8 0,0
14.01.2019 20:00:00 5,0 2,0 2 1 W 1024,5 6 0,0
14.01.2019 19:00:00 7,5 3,4 0 0 N 1024,2 11 -
14.01.2019 18:00:00 11,1 4,3 0 0 N 1023,9 19 0,0
14.01.2019 17:00:00 11,2 4,2 4 2 S 1024,2 19 0,0
14.01.2019 16:00:00 10,5 4,2 5 3 S 1024,8 18 -
14.01.2019 15:00:00 9,6 3,8 8 4 S 1025,7 16 0,0
14.01.2019 14:00:00 7,2 3,1 9 5 S 1026,8 16 0,0
14.01.2019 13:00:00 6,3 2,6 9 5 SE 1027,9 16 -
14.01.2019 12:00:00 5,4 3,1 2 1 W 1028,8 10 0,0

tt = Température de l'air
td = dewpoint
ff = Vitesse du vent
dd = Direction du vent
ppp = reduced air pressure
vv = visibility
rr = Quantités de précipitations

stations d'obs. à proximité